Weather History for Ramona, CA

Change the Weather History Date:

Saturday, November 9, 2013

  Actual Average Record
Temperature  
Mean Temperature 57 °F 58 °F  
Max Temperature 80 °F 73 °F 92 °F (1996)
Min Temperature 34 °F 42 °F 33 °F (2010)
Degree Days  
Heating Degree Days 8 8  
Month to date heating degree days 68 61  
Since 1 July heating degree days 220 180  
Cooling Degree Days 0 0  
Month to date cooling degree days 1 4  
Year to date cooling degree days 894 848  
Growing Degree Days 8 (Base 50)    
Moisture  
Dew Point 28 °F    
Average Humidity 44    
Maximum Humidity 82    
Minimum Humidity 6    
Precipitation  
Precipitation 0.00 in 0.04 in 0.47 in (2008)
Month to date precipitation 0.00 0.40  
Year to date precipitation 6.21 13.02  
Since 1 July precipitation 1.71 1.69  
Snow  
Snow 0.00 in - - ()
Month to date snowfall 0.0  
Year to date snowfall 0.0  
Since 1 July snowfall 0.0  
Snow Depth 0.00 in    
Sea Level Pressure  
Sea Level Pressure 30.04 in    
Wind  
Wind Speed 3 mph (West)    
Max Wind Speed 13 mph    
Max Gust Speed 21 mph    
Visibility 10 miles    
Events      
T = Trace of Precipitation, MM = Missing Value Source: NWS Daily Summary

Daily Weather History Graph

Daily Weather History Graph

Search for Another Location

Airport:

Trip Planner

Search our weather history database for the weather conditions in past years. The results will help you decide how hot, cold, wet, or windy it might be!

Date:

Astronomy

Nov. 09, 2013 Rise Set
Actual Time 6:13 AM PST 4:49 PM PST
Civil Twilight 5:47 AM PST 5:15 PM PST
Nautical Twilight 5:17 AM PST 5:45 PM PST
Astronomical Twilight 4:48 AM PST 6:14 PM PST
Moon 11:56 AM PST (11/9) 11:20 PM PST (11/9)
Length of Visible Light 11h 28m
Length of Day
10h 36m
Waxing Crescent, 45% of the Moon is Illuminated
Nov 9
Waxing Crescent
Nov 9
First Quarter
Nov 17
Full
Nov 25
Last Quarter
Dec 2
New

Hourly Weather History & Observations

Time (PST) Temp. Windchill Dew Point Humidity Pressure Visibility Wind Dir Wind Speed Gust Speed Precip Events Conditions
12:53 AM 39.9 °F 37.8 °F 32.0 °F 73% 30.00 in 10.0 mi ENE 3.5 mph - N/A   Clear
1:53 AM 37.9 °F - 32.0 °F 79% 30.01 in 10.0 mi Calm Calm - N/A   Clear
2:53 AM 37.9 °F - 32.0 °F 79% 30.01 in 10.0 mi Calm Calm - N/A   Clear
3:53 AM 39.0 °F - 33.1 °F 79% 30.00 in 10.0 mi Calm Calm - N/A   Clear
4:53 AM 37.0 °F - 30.9 °F 79% 30.02 in 10.0 mi Calm Calm - N/A   Clear
5:53 AM 37.9 °F - 30.9 °F 76% 30.03 in 10.0 mi Calm Calm - N/A   Clear
6:53 AM 39.9 °F - 33.1 °F 77% 30.05 in 10.0 mi Calm Calm - N/A   Clear
7:53 AM 54.0 °F - 36.0 °F 51% 30.06 in 10.0 mi ESE 3.5 mph - N/A   Clear
8:53 AM 68.0 °F - 26.1 °F 21% 30.05 in 10.0 mi Calm Calm - N/A   Clear
9:53 AM 75.0 °F - 19.9 °F 13% 30.05 in 10.0 mi NW 5.8 mph - N/A   Clear
10:53 AM 75.9 °F - 16.0 °F 10% 30.04 in 10.0 mi SSW 5.8 mph - N/A   Clear
11:53 AM 80.1 °F - 19.9 °F 11% 30.01 in 10.0 mi WNW 5.8 mph - N/A   Clear
12:53 PM 80.1 °F - 9.0 °F 7% 30.00 in 10.0 mi SW 4.6 mph - N/A   Clear
1:53 PM 78.1 °F - 28.9 °F 17% 30.00 in 10.0 mi West 10.4 mph - N/A   Clear
2:53 PM 73.9 °F - 33.1 °F 22% 30.01 in 10.0 mi WNW 9.2 mph - N/A   Clear
3:53 PM 70.0 °F - 28.9 °F 22% 30.01 in 10.0 mi West 6.9 mph - N/A   Clear
4:53 PM 61.0 °F - 28.9 °F 30% 30.02 in 10.0 mi Calm Calm - N/A   Clear
5:53 PM 55.0 °F - 28.9 °F 37% 30.05 in 10.0 mi Calm Calm - N/A   Clear
6:53 PM 51.1 °F - 28.9 °F 43% 30.08 in 10.0 mi Calm Calm - N/A   Clear
7:53 PM 46.9 °F - 30.0 °F 52% 30.08 in 10.0 mi Calm Calm - N/A   Clear
8:53 PM 45.0 °F - 30.0 °F 56% 30.08 in 10.0 mi Calm Calm - N/A   Clear
9:53 PM 43.0 °F - 30.0 °F 60% 30.08 in 10.0 mi Calm Calm - N/A   Clear
10:53 PM 45.0 °F - 32.0 °F 60% 30.06 in 10.0 mi Calm Calm - N/A   Clear
11:53 PM 45.0 °F 43.5 °F 33.1 °F 63% 30.04 in 10.0 mi ESE 3.5 mph - N/A   Clear